DW8751 Weather Reports


time (UTC)temp
C
wind
direction
speed
KPH
gust
KPH
rain 1hr
cm
rain 24hr
cm
rain mn
cm
humidity
%
barometer
mb
20260503005605 10 72 0.0 0.0 0.08 0.20 0.15 95 1015.9
20260503005105 10 38 0.0 0.0 0.08 0.20 0.15 95 1015.9
20260503004104 10 58 0.0 0.0 0.08 0.18 0.13 95 1015.9
20260503003605 10 53 0.0 0.0 0.08 0.18 0.13 94 1015.9
20260503003105 10 35 1.6 3.2 0.08 0.18 0.13 94 1015.9
20260503002605 10 22 1.6 4.8 0.08 0.15 0.10 94 1015.9
20260503002105 10 58 0.0 0.0 0.08 0.15 0.10 94 1015.9
20260503001604 10 61 0.0 0.0 0.08 0.15 0.10 94 1015.9
20260503001105 10 61 0.0 0.0 0.08 0.15 0.08 94 1015.9
20260503000606 10 52 0.0 0.0 0.08 0.15 0.08 94 1015.9
20260502235605 10 63 0.0 4.8 0.00 0.13 0.05 94 1015.9
20260502235105 10 53 1.6 4.8 0.00 0.13 0.05 94 1015.9
20260502234605 10 46 3.2 4.8 0.00 0.13 0.05 94 1015.9
20260502234105 10 53 3.2 3.2 0.05 0.10 0.05 94 1015.9
20260502233605 10 51 1.6 4.8 0.05 0.10 0.05 94 1015.9
20260502233105 10 48 0.0 3.2 0.05 0.10 0.05 94 1015.9
20260502232605 10 62 1.6 4.8 0.03 0.08 0.03 94 1015.9
20260502232105 10 70 3.2 4.8 0.03 0.08 0.03 94 1015.9
20260502231605 10 74 4.8 8.0 0.03 0.08 0.03 94 1015.9
20260502230605 10 65 3.2 9.7 0.03 0.05 0.00 93 1015.9
20260502230105 10 68 4.8 8.0 0.03 0.05 0.00 93 1015.9
20260502225605 10 62 3.2 4.8 0.03 0.05 0.05 93 1015.9
20260502225105 10 73 1.6 4.8 0.03 0.05 0.05 93 1015.9
20260502224605 10 38 1.6 4.8 0.03 0.05 0.05 93 1015.9
20260502224105 10 76 1.6 4.8 0.03 0.05 0.05 93 1015.9
20260502223605 10 53 0.0 0.0 0.03 0.05 0.05 93 1015.9
20260502223105 10 70 0.0 1.6 0.03 0.05 0.05 93 1015.9
20260502222604 10 60 3.2 4.8 0.03 0.05 0.05 92 1015.9
20260502222105 10 84 1.6 4.8 0.03 0.05 0.05 92 1015.9
20260502221605 10 63 3.2 4.8 0.03 0.05 0.05 92 1015.9
20260502221105 10 83 3.2 8.0 0.03 0.05 0.05 92 1015.9
20260502220605 10 71 3.2 8.0 0.00 0.05 0.05 92 1015.9
20260502220105 10 81 3.2 4.8 0.03 0.05 0.05 91 1015.9
20260502215605 10 87 0.0 4.8 0.03 0.05 0.05 91 1015.9
20260502215105 10 87 0.0 0.0 0.03 0.05 0.05 90 1015.9
20260502214105 10 89 0.0 0.0 0.03 0.05 0.05 90 1015.9
20260502213605 10 77 0.0 0.0 0.03 0.05 0.05 90 1015.9
20260502213105 10 79 0.0 0.0 0.03 0.05 0.05 90 1015.9
20260502212104 10 96 0.0 0.0 0.05 0.05 0.05 90 1015.9
20260502211105 10 96 0.0 0.0 0.05 0.05 0.05 89 1015.9
20260502210605 10 96 0.0 0.0 0.05 0.05 0.05 89 1015.9
20260502210105 10 96 0.0 3.2 0.03 0.03 0.03 89 1015.9
20260502205606 10 96 1.6 3.2 0.03 0.03 0.03 89 1015.9
20260502205105 10 96 0.0 3.2 0.03 0.03 0.03 89 1015.9
20260502204605 10 96 3.2 4.8 0.03 0.03 0.03 89 1015.9
20260502204104 10 96 3.2 4.8 0.03 0.03 0.03 89 1015.9
20260502203105 10 96 0.0 3.2 0.03 0.03 0.03 89 1015.9
20260502202605 10 96 1.6 3.2 0.03 0.03 0.03 89 1015.9
20260502202105 10 96 0.0 4.8 0.00 0.00 0.00 89 1015.9
20260502201605 10 96 1.6 4.8 0.00 0.00 0.00 89 1015.9
20260502201105 10 96 1.6 4.8 0.00 0.00 0.00 89 1015.9
20260502200605 10 96 1.6 4.8 0.00 0.00 0.00 89 1015.9
20260502200105 10 96 0.0 4.8 0.00 0.00 0.00 89 1015.9
20260502195605 10 96 1.6 4.8 0.00 0.00 0.00 88 1015.9
20260502195104 10 96 1.6 3.2 0.00 0.00 0.00 88 1015.9
20260502194605 10 96 3.2 8.0 0.00 0.00 0.00 87 1015.9
20260502193605 11 96 1.6 8.0 0.00 0.00 0.00 87 1015.9
20260502193105 11 96 4.8 9.7 0.00 0.00 0.00 86 1015.9
20260502192604 11 95 4.8 9.7 0.00 0.00 0.00 86 1015.9
20260502192105 11 95 6.4 11.3 0.00 0.00 0.00 85 1015.9
20260502191605 11 90 8.0 12.9 0.00 0.00 0.00 85 1015.9
20260502190105 11 82 8.0 16.1 0.00 0.00 0.00 83 1015.9
20260502185605 11 89 9.7 12.9 0.00 0.00 0.00 82 1015.9
20260502185105 11 84 9.7 14.5 0.00 0.00 0.00 82 1015.9
20260502184605 11 79 11.3 14.5 0.00 0.00 0.00 81 1015.9
20260502184105 11 80 8.0 12.9 0.00 0.00 0.00 81 1015.9
20260502183605 11 90 8.0 11.3 0.00 0.00 0.00 80 1015.9
20260502183104 11 82 9.7 12.9 0.00 0.00 0.00 80 1015.9
20260502182605 11 86 9.7 16.1 0.00 0.00 0.00 79 1015.9
20260502182105 11 86 9.7 12.9 0.00 0.00 0.00 80 1015.9
20260502181604 11 103 6.4 14.5 0.00 0.00 0.00 79 1015.9
20260502181105 11 100 9.7 16.1 0.00 0.00 0.00 79 1015.9
20260502180605 11 91 9.7 12.9 0.00 0.00 0.00 79 1015.9
20260502180105 11 84 8.0 12.9 0.00 0.00 0.00 80 1015.9
20260502170104 12 95 6.4 11.3 0.00 0.00 0.00 78 1015.9
20260502164105 12 99 8.0 16.1 0.00 0.00 0.00 77 1015.9
20260502163604 12 96 8.0 12.9 0.00 0.00 0.00 78 1015.9
20260502163104 12 86 9.7 16.1 0.00 0.00 0.00 77 1015.9
20260502162605 12 87 8.0 14.5 0.00 0.00 0.00 78 1015.9
20260502162105 12 73 9.7 16.1 0.00 0.00 0.00 78 1015.9
20260502161605 12 83 9.7 16.1 0.00 0.00 0.00 78 1015.9
20260502161104 12 83 11.3 16.1 0.00 0.00 0.00 78 1015.9
20260502160604 12 71 9.7 16.1 0.00 0.00 0.00 78 1015.9
20260502160105 12 64 6.4 12.9 0.00 0.00 0.00 78 1015.9
20260502152104 12 42 3.2 9.7 0.00 0.00 0.00 80 1015.9
20260502151105 12 49 8.0 14.5 0.00 0.00 0.00 79 1015.9
20260502150605 12 45 8.0 12.9 0.00 0.00 0.00 79 1015.9
20260502150105 12 56 9.7 14.5 0.00 0.00 0.00 79 1015.9
20260502140105 13 59 8.0 19.3 0.00 0.00 0.00 78 1015.9
20260502130605 12 58 8.0 12.9 0.00 0.00 0.00 79 1015.9
20260502123605 12 46 9.7 16.1 0.00 0.00 0.00 78 1015.9
20260502123105 12 36 9.7 14.5 0.00 0.00 0.00 79 1015.9
20260502122605 12 40 9.7 14.5 0.00 0.00 0.00 78 1015.9
20260502122105 12 49 8.0 14.5 0.00 0.00 0.00 78 1015.9
20260502121605 12 49 8.0 19.3 0.00 0.03 0.00 78 1015.9
20260502121105 12 44 8.0 16.1 0.00 0.03 0.00 79 1015.9
20260502120605 12 28 9.7 12.9 0.00 0.05 0.00 80 1015.9
20260502120105 12 47 9.7 11.3 0.00 0.05 0.00 80 1015.9
20260502115605 12 64 8.0 12.9 0.00 0.05 0.00 81 1015.9
20260502114604 12 39 4.8 9.7 0.00 0.08 0.00 82 1015.9
20260502114105 12 50 6.4 9.7 0.00 0.10 0.00 82 1015.9
20260502113605 12 50 8.0 11.3 0.00 0.13 0.00 81 1015.9
20260502112605 12 68 4.8 11.3 0.00 0.15 0.00 80 1015.9
20260502112105 12 61 4.8 11.3 0.00 0.15 0.00 81 1015.9
20260502111605 12 57 4.8 12.9 0.00 0.18 0.00 81 1015.9
20260502111105 12 55 4.8 12.9 0.00 0.20 0.00 82 1015.9
20260502110105 11 65 6.4 16.1 0.00 0.23 0.00 82 1015.9
20260502105604 12 81 9.7 14.5 0.00 0.23 0.00 82 1015.9
20260502104605 12 63 4.8 12.9 0.00 0.23 0.00 82 1015.9
20260502104105 11 69 4.8 8.0 0.00 0.23 0.00 82 1015.9
20260502103605 11 66 3.2 8.0 0.00 0.23 0.00 82 1015.9
20260502103105 11 61 4.8 11.3 0.00 0.23 0.00 82 1015.9
20260502102605 11 39 4.8 8.0 0.00 0.23 0.00 82 1015.9
20260502102105 11 43 6.4 9.7 0.00 0.23 0.00 82 1015.9
20260502101605 11 75 4.8 8.0 0.00 0.23 0.00 83 1015.9
20260502101106 11 72 8.0 12.9 0.00 0.23 0.00 82 1015.9
20260502100605 11 59 4.8 9.7 0.00 0.23 0.00 82 1015.9
20260502090604 11 3 4.8 9.7 0.00 0.23 0.00 83 1015.9
20260502090105 11 25 4.8 8.0 0.00 0.23 0.00 83 1015.9
20260502071105 11 225 1.6 4.8 0.00 0.23 0.00 84 1015.9
20260502070605 11 228 1.6 3.2 0.00 0.23 0.00 84 1015.9
20260502070105 11 227 0.0 3.2 0.00 0.23 0.00 84 1015.9
20260502064604 11 231 0.0 0.0 0.00 0.23 0.00 83 1015.9
20260502064104 11 230 0.0 0.0 0.00 0.23 0.00 83 1015.9
20260502063604 11 230 0.0 0.0 0.00 0.23 0.00 84 1015.9
20260502063104 11 230 0.0 3.2 0.00 0.23 0.00 84 1015.9
20260502062604 11 230 1.6 4.8 0.00 0.23 0.00 85 1015.9
20260502061605 11 230 3.2 4.8 0.00 0.23 0.00 86 1015.9
20260502060605 10 238 3.2 4.8 0.00 0.23 0.00 86 1015.9
20260502060105 10 239 0.0 4.8 0.00 0.23 0.00 86 1015.9
20260502055605 10 239 3.2 8.0 0.00 0.23 0.00 86 1015.9
20260502055104 10 238 1.6 9.7 0.00 0.23 0.00 87 1015.9
20260502054605 10 154 1.6 4.8 0.00 0.23 0.00 87 1015.9
20260502053605 10 168 8.0 16.1 0.00 0.23 0.00 88 1015.9
20260502053105 10 193 8.0 16.1 0.00 0.23 0.00 89 1015.9
20260502052605 9 202 6.4 16.1 0.00 0.23 0.00 89 1015.9
20260502052105 9 221 9.7 16.1 0.00 0.23 0.00 89 1015.9
20260502051106 9 257 9.7 14.5 0.00 0.23 0.00 90 1015.9
20260502050104 9 285 9.7 16.1 0.00 0.23 0.00 90 1015.9
20260502045105 9 210 11.3 19.3 0.00 0.23 0.00 90 1015.9
20260502044605 9 230 9.7 14.5 0.00 0.23 0.00 90 1015.9
20260502044105 9 208 9.7 19.3 0.00 0.23 0.00 90 1015.9
20260502043605 9 266 11.3 14.5 0.00 0.23 0.00 90 1015.9
20260502043105 9 246 9.7 19.3 0.00 0.23 0.00 90 1015.9
20260502042604 9 228 8.0 14.5 0.00 0.23 0.00 90 1015.9
20260502042104 9 272 9.7 14.5 0.00 0.23 0.00 89 1015.9
20260502041605 9 258 6.4 12.9 0.00 0.23 0.00 89 1015.9
20260502041105 9 230 9.7 14.5 0.00 0.23 0.00 89 1015.9
20260502040605 9 253 11.3 16.1 0.00 0.23 0.00 89 1015.9
20260502040105 9 216 9.7 19.3 0.00 0.23 0.00 89 1015.9
20260502035605 9 208 8.0 19.3 0.00 0.23 0.00 89 1015.9
20260502035105 9 185 11.3 20.9 0.00 0.23 0.00 89 1015.9
20260502034605 10 217 12.9 19.3 0.00 0.23 0.00 89 1015.9
20260502034105 9 198 16.1 24.1 0.00 0.23 0.00 89 1015.9
20260502033605 9 183 14.5 20.9 0.00 0.23 0.00 88 1015.9
20260502033105 9 200 16.1 22.5 0.00 0.23 0.00 88 1015.9
20260502032104 9 181 11.3 20.9 0.00 0.23 0.00 88 1015.9
20260502031604 9 204 14.5 22.5 0.00 0.23 0.00 88 1015.9
20260502031104 9 202 12.9 24.1 0.00 0.23 0.00 88 1015.9
20260502030605 10 182 14.5 29.0 0.00 0.23 0.00 88 1015.9
20260502030104 10 207 12.9 22.5 0.00 0.23 0.00 88 1015.9
20260502025604 10 181 16.1 25.7 0.00 0.23 0.00 88 1015.9
20260502025105 10 185 17.7 29.0 0.00 0.23 0.00 88 1015.9
20260502024604 10 197 20.9 27.4 0.00 0.23 0.00 88 1015.9
20260502024105 10 200 19.3 25.7 0.00 0.23 0.00 88 1015.9
20260502023104 10 216 19.3 29.0 0.00 0.23 0.00 88 1015.9
20260502022604 10 195 20.9 27.4 0.00 0.23 0.00 88 1015.9
20260502022104 10 216 16.1 29.0 0.00 0.23 0.00 88 1015.9
20260502021105 10 191 20.9 29.0 0.00 0.23 0.00 87 1015.9
20260502020604 10 189 17.7 29.0 0.00 0.23 0.00 87 1015.9
20260502020104 10 203 16.1 29.0 0.00 0.23 0.00 87 1015.9
20260502015604 10 188 17.7 29.0 0.00 0.23 0.00 88 1015.9
20260502015105 10 196 16.1 25.7 0.00 0.23 0.00 87 1015.9
20260502014605 10 217 17.7 29.0 0.00 0.23 0.00 87 1015.9
20260502014104 10 202 20.9 29.0 0.00 0.23 0.00 88 1015.9
20260502013604 10 184 20.9 32.2 0.00 0.23 0.00 88 1015.9
20260502013104 10 321 20.9 25.7 0.00 0.23 0.00 88 1015.9
20260502012105 10 194 17.7 32.2 0.00 0.23 0.00 87 1015.9
20260502011605 10 195 17.7 27.4 0.00 0.23 0.00 87 1015.9
20260502011106 10 187 16.1 25.7 0.00 0.23 0.00 87 1015.9
20260502010605 10 209 19.3 32.2 0.00 0.23 0.00 88 1015.9
20260502010105 10 195 19.3 27.4 0.00 0.23 0.00 88 1015.9